www.pogodaiklimat.ru

Погода и климат >> Архив погоды >> Россия >> Приморский край >> Анучино


ПОГОДА в Анучино

  • Прогноз погоды в Анучино
  • Монитор погоды в Анучино

АРХИВ ПОГОДЫ в Анучино

Время (UTC), дата Ветер
(напр.,м/с)
 
Видим.   Явления Облачность Т
(С)
Тd
(С)
f
(%)
Тe
(С)
Тes
(С)
Комфортность P
(гПа)
Po
(гПа)
Тmin
(С)
Tmax
(С)
R
(мм)
R24
(мм)
S
(см)
03 14.09 штиль 0 10 км слаб. ливневой дождь 10/10 200 м
[Cb cap]
+16.6 +14.7 89 +16 +16 1011.2 989.4
06 14.09 СВ 1 50 км {ливн. осадки} 8/8 600 м
[Cu med, cong]
+17.5 +13.5 77 +19 +20 1011.3 989.5
09 14.09 штиль 0 50 км ясно +16.9 +13.7 81 +17 +17 1011.9 990.0 +18.8 3
12 14.09 ЮЗ 1 50 км 4/4 200 м
[St]
+11.9 +11.5 97 +12 +12 1014.8 992.4
15 14.09 З 1 50 км 10/10 200 м
[St]
+10.5 +10.4 99 +10 +10 1015.9 993.4
18 14.09 З 1 50 км 10/10 200 м
[St]
+9.7 +9.7 100 +9 +9 1016.1 993.5
21 14.09 ЮЗ 1 50 км 10/10 200 м
[St]
+8.9 +8.9 100 +8 +8 1016.9 994.3 +8.9
00 15.09 ЮЗ 1 500 м туман ?/? +10.0 +10.1 100 +9 +9 1016.7 994.2 +8.7
03 15.09 С 1 50 км {туман} ясно +20.0 +11.5 58 +23 +37 комфорт 1014.0 992.3
06 15.09 СВ 1 50 км {туман} ясно +23.6 +8.4 38 +24 +32 комфорт 1011.3 989.9
09 15.09 штиль 0 50 км 8/0
[Ci sp]
+17.9 +13.4 75 +18 +18 1011.4 989.6 +24.1
12 15.09 ЮЗ 2 50 км 1/0
[Ci sp]
+12.2 +10.8 91 +11 +11 1012.8 990.5
15 15.09 ЮЗ 2 50 км 10/0
[Cs]
+10.3 +9.4 94 +9 +9 1013.3 990.9
18 15.09 ЮЗ 1 50 км 10/0
[Ac As]
+9.6 +8.8 95 +9 +9 1013.2 990.7
21 15.09 Ю 1 50 км 1/0
[Cc]
+8.2 +7.5 95 +7 +7 1013.0 990.3 +8.2
00 16.09 ЮЗ 1 50 км ясно +14.5 +10.1 75 +15 +21 1013.1 990.9 +7.8
03 16.09 С 3 50 км 3/3 600 м
[Cu hum]
+21.5 +9.8 47 +23 +30 комфорт 1011.8 990.2
06 16.09 С 3 50 км 3/3 600 м
[Cu med, cong]
+21.4 +9.2 46 +23 +26 комфорт 1011.7 990.1
09 16.09 С 1 50 км ясно +16.7 +7.5 55 +18 +18 1013.1 991.1 +22.8
12 16.09 ЮЗ 1 50 км ясно +9.3 +8.0 92 +9 +9 1015.9 993.3
15 16.09 ЮЗ 1 50 км ясно +6.1 +5.4 95 +5 +5 1017.7 994.8
18 16.09 ЮЗ 2 50 км 10/4 300 м
[St Cs]
+4.3 +4.0 98 +1 +1 1018.6 995.5
21 16.09 З 2 500 м туман ?/? +4.1 +4.1 100 +1 +1 1019.2 996.1 +3.4
00 17.09 ЮЗ 2 50 км {туман} 3/3 300 м
[St]
+7.0 +6.9 99 +5 +8 1019.2 996.3
03 17.09 В 1 50 км ясно +17.6 +0.2 31 +19 +32 опасность
простуды
1016.7 994.6
06 17.09 Ю 1 50 км ясно +19.9 +0.9 28 +21 +29 комфорт 1014.0 992.3
09 17.09 штиль 0 50 км ясно +14.5 +7.7 64 +14 +14 1013.1 991.0 +20.7
12 17.09 ЮЗ 2 50 км 4/0
[Ci sp]
+7.9 +6.8 93 +6 +6 1013.4 990.7
15 17.09 ЮЗ 2 50 км 8/0
[Cc]
+7.1 +6.1 93 +5 +5 1011.9 989.2
18 17.09 Ю 1 50 км 10/3 600 м
[Sc Cc]
+7.4 +6.1 91 +6 +6 1009.8 987.2
21 17.09 З 3
{14}
10 км гроза, ливневой дождь 10/10 600 м
[Cb cap]
+11.3 +7.7 78 +10 +10 1011.7 989.3 +6.3 3
00 18.09 З 4
{11}
50 км {гроза, ливн. осадки} 6/6 600 м
[Cu med, cong]
+12.3 +3.5 55 +11 +12 1013.4 991.1
03 18.09 СЗ 4
{13}
50 км 8/8 600 м
[Cu med, cong]
+12.1 +0.6 45 +10 +12 1014.3 991.9
06 18.09 З 4
{11}
50 км 8/8 600 м
[Cu med, cong]
+12.1 -3.7 33 +11 +11 1013.9 991.5
09 18.09 З 1
{16}
50 км в посл. час ливневой дождь 6/4 600 м
[Sc Ac trans]
+8.0 +1.2 62 +8 +8 1016.0 993.3 +13.2 0.0
12 18.09 ЮЗ 1 50 км {ливн. осадки} 3/3 600 м
[Sc]
+3.4 +1.7 89 +2 +2 1017.5 994.4
15 18.09 ЮЗ 2 50 км 3/0
[Ac trans]
+2.5 +1.1 90 -1 -1 1017.0 993.8
18 18.09 ЮЗ 2 50 км 10/0
[Ci sp]
+0.5 -0.3 94 -3 -3 1015.8 992.5
21 18.09 ЮЗ 1 50 км 10/10 600 м
[Sc]
+3.3 +1.4 87 +2 +2 1014.7 991.6 +0.4
00 19.09 З 3 50 км ясно +12.1 +0.1 44 +11 +15 1014.0 991.6
03 19.09 З 5-12
{12}
50 км 3/3 600 м
[Sc]
+14.7 -2.6 30 +14 +18 1013.1 990.9
06 19.09 З 4-14
{14}
50 км ясно +16.6 -3.5 25 +16 +20 1012.6 990.6
09 19.09 штиль 0
{14}
50 км ясно +13.2 -0.5 39 +13 +13 1014.0 991.7 +17.0
12 19.09 ЮВ 1 50 км ясно +5.6 +2.6 81 +4 +4 1016.9 994.0
15 19.09 ЮЗ 1 50 км ясно +3.4 +1.9 90 +2 +2 1018.2 995.1
18 19.09 ЮЗ 1 50 км ясно +1.6 +0.9 95 -0 -0 1019.3 996.0
21 19.09 ЮЗ 1 50 км ясно +0.7 -0.2 94 -1 -1 1020.9 997.5 +0.7
00 20.09 З 1 50 км ясно +7.8 +3.0 72 +7 +13 1021.3 998.4
03 20.09 Ю 1 50 км ясно +16.1 +0.9 36 +17 +30 опасность
простуды
1019.4 997.2
06 20.09 ЮЗ 1 50 км ясно +18.9 +0.7 29 +20 +27 1017.8 995.9
09 20.09 штиль 0 50 км ясно +13.0 +7.1 67 +13 +13 1019.0 996.6 +20.4
12 20.09 ЮЗ 2 50 км ясно +6.1 +4.8 91 +4 +4 1020.9 997.9
15 20.09 ЮЗ 1 50 км 1/0
[Ac trans]
+4.9 +4.1 95 +3 +3 1020.9 997.8
18 20.09 ЮВ 2 10 км слаб. ливневой дождь 10/10 600 м
[Cb cap]
+6.4 +4.9 90 +4 +4 1020.6 997.7

 

Местоположение метеостанции Анучино (Приморский край, Россия): широта 43.97 долгота 133.00 высота над уровнем моря 188 м.

В архиве по умолчанию представлена погода в Анучино за последнюю неделю. Архивные данные за месяц целиком и за предыдущие месяцы, начиная с января 2011 года, Вы можете получить, выбрав интересующий диапазон дат из раскрывающегося списка и нажав кнопку "Ввод!".


*Определитесь, кто Вы:
робот инопланетянин человек

Внимание! Время в таблицах - всемирное. Для получения местного времени необходимо прибавить поправку, которая равна 10 ч.

Смотрите также архив погоды в соседних городах и на ближайших метеорологических станциях:

Погода в Чугуевке (Приморский край, Россия) (67 км)
Погода в Многоудобном (Приморский край, Россия) (70 км)
Погода в Спасск-Дальнем (Приморский край, Россия) (75 км)
Погода в Тимирязевском (Приморский край, Россия) (89 км)
Погода в Лазо (Приморский край, Россия) (90 км)
Погода в Партизанске (Приморский край, Россия) (91 км)
Погода в Свиягино (Приморский край, Россия) (92 км)
Погода в Хороле (Приморский край, Россия) (95 км)
Погода в Астраханке (Приморский край, Россия) (115 км)
Погода в Лучегорске (Приморский край, Россия) (123 км)

Пояснения к столбцам:

Ветер - указаны скорость ветра в м/с - средняя за 10 мин, порывы в срок и между сроками (в фигурных скобках) и направление, откуда дует ветер: С - северный, СВ - северо-восточный, В - восточный, ЮВ - юго-восточный, Ю - южный, ЮЗ - юго-западный, З - западный, СЗ - северо-западный.
Видимость - горизонтальная дальность видимости в метрах или километрах. При видимости от 1 до 10 км при отсутствии осадков обычно наблюдается дымка, при ухудшении видимости до 1 км и менее - туман. В сухую погоду видимость может ухудшаться дымом, пылью или мглою.
Явления - указаны атмосферные явления, наблюдавшиеся в срок или в последний час перед сроком; фигурными скобками обозначены явления, наблюдавшиеся между сроками (за 1-3 часа до срока); квадратными скобками обозначены град или гололедные отложения с указанием их диаметра в мм.
Облачность - указаны через наклонную черту общая и нижняя облачность в баллах и высота нижней границы облаков в метрах; квадратными скобками обозначены формы облаков: Ci - перистые, Cs - перисто-слоистые, Cc - перисто-кучевые, Ac - высококучевые, As - высокослоистые, Sc - слоисто-кучевые, Ns - слоисто-дождевые, Cu - кучевые, Cb - кучево-дождевые. Подробнее классификацию облаков см. в Атласе облаков (PDF).
T - Температура воздуха - температура, измеренная на высоте 2 м над землей.
Td - Температура точки росы - температура, при понижении до которой содержащийся в воздухе водяной пар достигнет насыщения.
f - Относительная влажность воздуха - влажноcть воздуха, измеренная на высоте 2 м над землей.
Te - Эффективная температура - температура, которую ощущает одетый по сезону человек в тени. Характеристика душности погоды. При расчете учитывается влияние влажности воздуха и скорости ветра на теплоощущения человека.
Tes - Эффективная температура на солнце - температура, которую ощущает человек, с поправкой на солнечный нагрев. Характеристика знойности погоды. Зависит от высоты солнца над горизонтом, облачности и скорости ветра. Ночью, в пасмурную погоду, а также при ветре 12 м/с и более поправка равна нулю.
P - Атмосферное давление - приведенное к уровню моря атмосферное давление.
Po - Атмосферное давление - измеренное на уровне метеостанции атмосферное давление.
Tmin - Минимальная температура - минимум температуры воздуха на высоте 2 м над землей.
Tmax - Максимальная температура - максимум температуры воздуха на высоте 2 м над землей.
R - Количество осадков - Количество выпавших осадков за период времени, мм. При наведении курсора мыши на число - период времени, за который выпало указанное количество осадков.
R24 - Количество осадков - Количество выпавших осадков за 24 часа, мм.
S - Снежный покров - Высота снежного покрова, см. При наведении курсора мыши на число - состояние снежного покрова и степень покрытия местности в баллах.